Theta_e
343 342 345 345 345 345 346 346 347 347 346 346 346 345 345 345 345 345 345 345 345 345 345 345 345 345 345 345 345 345 346 346 345 345 346 346 346 347 346 346 346 346 347 347 347 347 347 347 347 347 347 348 347 347 347 346 346 346 347 348 347 347 348 348 347 348 348 347 347 346 346 347 347 348 349 348 348 347 347 347 348 349 350 347 344
342 342 343 347 347 345 345 346 346 346 346 345 345 344 344 343 343 343 342 343 343 344 345 345 345 345 345 345 346 345 346 345 345 345 345 346 346 346 346 346 346 345 346 347 347 347 347 346 346 345 346 347 347 347 345 345 346 346 347 346 346 347 347 347 346 346 346 346 346 346 346 346 347 347 348 347 344 345 346 347 347 349 348 344 343
346 343 344 346 345 345 346 346 346 346 345 344 343 342 342 341 341 341 341 341 341 341 340 342 344 345 345 345 345 346 345 345 345 346 345 346 346 345 345 345 346 346 346 347 347 345 346 346 345 346 346 346 346 345 346 346 346 346 346 346 346 346 346 345 345 345 345 345 346 347 346 346 345 346 346 346 345 345 345 347 344 345 346 343 346
340 346 347 346 345 345 345 346 345 345 343 342 342 342 341 341 341 341 341 340 340 340 339 339 340 341 343 345 345 345 345 345 346 346 346 345 345 345 345 345 345 346 345 345 345 345 345 345 346 346 346 346 346 345 345 346 346 346 345 345 346 346 345 345 345 345 345 345 345 346 349 351 349 347 346 346 346 346 346 345 342 343 343 344 344
341 344 344 344 345 345 344 343 343 343 342 342 341 341 341 341 342 342 342 341 341 341 340 340 338 337 338 341 344 345 345 345 346 346 346 345 345 345 346 346 345 345 346 345 345 344 345 345 344 345 345 345 345 345 345 344 345 345 345 345 345 345 345 345 345 344 346 343 343 346 350 350 352 347 346 346 346 346 346 345 341 341 342 344 341
343 342 342 345 346 345 342 342 342 342 341 341 341 341 342 342 342 342 342 342 341 341 341 341 340 338 337 337 340 344 345 345 345 345 345 345 344 345 345 343 343 344 344 343 343 343 345 345 345 345 344 340 344 344 344 343 345 344 344 344 345 344 345 344 344 345 344 342 344 348 347 351 352 352 346 345 346 346 345 344 344 342 344 341 341
343 342 344 345 343 343 342 342 342 342 341 341 341 342 342 342 341 341 341 341 341 340 341 341 340 339 338 336 335 339 343 345 344 345 345 343 344 342 343 344 343 344 344 343 343 342 342 344 344 344 343 341 343 343 343 344 344 344 344 344 344 343 344 344 345 344 343 346 348 348 349 353 351 350 344 344 344 344 342 343 343 344 342 342 342
342 343 345 343 343 342 342 342 342 342 341 341 342 342 342 341 342 342 341 342 341 339 339 339 341 340 339 337 336 335 340 343 344 343 344 344 342 341 342 344 343 343 342 343 343 343 343 344 345 346 344 343 343 343 343 344 343 343 343 343 342 344 344 344 344 343 342 348 347 349 351 352 351 351 343 344 345 345 344 345 344 344 343 342 343
340 343 342 342 342 342 341 341 341 341 341 341 341 341 341 341 341 341 341 340 340 339 338 339 339 340 340 339 336 336 335 339 342 343 343 342 340 341 342 344 343 343 341 341 342 342 343 343 344 345 344 344 343 342 343 343 343 343 343 342 342 343 344 344 343 342 345 348 349 349 351 352 351 352 344 343 344 345 345 344 343 343 344 344 343
340 340 340 340 341 342 341 340 340 340 340 340 340 340 340 341 341 340 339 338 337 337 338 339 339 338 340 339 339 337 337 338 339 342 342 342 338 340 342 342 342 342 339 338 339 343 341 342 341 343 344 342 343 342 344 343 342 342 342 342 342 344 344 343 343 343 348 350 351 351 352 347 352 351 346 343 343 344 344 344 344 343 343 343 343
340 339 340 340 343 342 341 339 339 339 339 339 339 339 339 340 339 338 337 336 336 337 338 338 339 338 338 339 339 339 339 339 339 341 341 341 341 340 342 342 339 340 341 340 340 341 342 342 342 344 344 343 343 343 343 343 343 342 342 342 342 343 344 343 344 348 348 349 351 351 348 344 350 350 343 343 345 344 343 343 344 344 344 345 345
338 339 338 336 341 342 341 340 339 338 339 339 339 339 338 338 338 338 337 336 337 337 338 338 338 338 339 340 341 340 339 339 339 340 340 341 339 337 337 336 335 336 337 337 336 339 342 342 343 344 343 343 343 343 343 342 342 342 342 342 342 342 343 343 346 345 348 349 350 350 350 351 351 349 344 344 345 346 345 346 345 345 344 346 345
336 336 340 341 339 341 340 340 339 339 339 339 339 338 338 338 339 338 337 337 337 337 338 338 339 339 339 341 341 342 341 338 338 339 339 339 336 334 335 337 337 338 335 336 337 337 341 342 344 343 343 343 343 343 343 342 342 342 342 342 342 342 343 342 348 345 347 350 349 348 350 350 351 343 344 344 344 346 346 346 345 345 345 346 345
334 337 340 339 340 338 340 339 338 339 339 338 339 339 340 339 340 339 338 337 337 337 338 339 339 340 340 342 343 341 338 338 338 338 339 341 340 335 335 338 337 337 335 336 335 336 342 343 343 342 343 343 342 342 342 342 342 342 342 341 341 342 343 344 341 347 348 349 349 348 348 349 349 344 343 343 344 344 344 345 344 345 346 345 345
335 337 338 338 339 340 338 338 338 339 338 337 339 340 340 340 340 339 338 336 337 336 337 338 338 340 340 341 343 343 338 337 337 337 340 341 340 338 336 337 337 336 336 335 336 335 339 343 343 343 342 343 342 342 341 341 341 342 342 342 342 343 343 349 346 345 348 348 347 348 347 348 343 341 340 340 341 342 343 344 344 345 344 344 345
340 337 337 339 338 341 341 340 338 337 336 337 340 340 340 339 338 338 337 336 336 335 336 338 339 340 340 340 341 343 340 338 338 338 342 341 340 339 338 337 337 336 338 336 335 339 341 342 342 343 342 342 342 342 342 341 341 342 342 342 342 343 343 342 345 346 346 347 346 345 345 343 340 340 340 340 342 341 340 343 344 343 344 344 344
340 339 338 339 341 344 342 344 338 337 334 335 339 340 339 339 337 337 336 335 334 334 335 336 337 338 339 339 339 341 341 341 340 340 341 339 338 338 337 336 337 338 336 336 334 339 340 340 341 341 341 342 342 342 341 342 342 341 341 342 342 342 343 343 346 347 346 345 345 343 340 344 340 340 339 340 340 339 337 339 340 341 342 343 343
339 338 339 341 344 344 344 345 343 338 337 334 337 339 338 338 338 338 336 334 333 333 334 335 336 337 338 338 339 339 342 342 342 342 341 340 337 337 338 337 339 340 339 336 339 341 341 339 341 341 342 341 341 341 341 342 342 341 341 339 341 343 342 342 345 345 343 341 341 344 344 338 340 339 337 338 340 337 339 337 340 340 340 340 342
338 338 341 343 343 344 344 343 342 337 336 336 336 336 337 339 339 338 335 334 333 333 334 335 336 337 337 338 339 339 340 340 340 341 340 339 338 340 339 338 339 341 341 342 341 341 342 342 341 342 342 342 342 341 341 342 343 342 341 340 342 342 341 343 345 341 342 342 343 342 342 339 338 340 340 339 339 340 339 338 339 340 339 339 339
337 338 338 341 342 342 343 340 337 337 336 336 337 337 337 340 337 337 334 335 334 332 332 333 334 336 337 337 338 338 338 340 338 339 341 340 338 340 340 341 340 342 341 341 341 342 342 342 343 342 342 342 343 342 342 342 342 342 341 342 342 341 346 344 343 341 342 343 344 345 341 339 340 339 340 341 341 340 339 338 339 339 337 338 338
337 338 339 338 339 339 338 336 337 337 336 337 337 336 336 336 333 334 332 332 331 331 331 332 333 334 335 334 334 336 338 341 338 339 339 341 339 338 339 339 340 341 342 343 343 343 343 343 342 341 341 341 341 342 343 342 342 343 343 342 342 346 345 340 340 341 341 344 346 346 340 340 340 340 340 341 341 340 340 339 339 339 339 337 340
335 336 339 340 337 337 335 336 335 337 337 335 335 335 335 333 335 335 334 333 332 332 332 332 332 334 333 334 336 334 334 337 340 337 340 341 338 337 339 340 340 339 339 340 341 344 344 343 341 340 340 340 341 347 347 342 343 342 340 341 345 345 341 342 341 339 342 344 346 342 339 339 339 340 340 341 340 341 339 338 340 340 340 339 340
330 333 334 337 336 335 335 336 337 338 336 335 334 334 334 334 333 334 333 333 333 333 332 332 331 331 332 333 334 335 333 336 335 335 336 335 338 337 338 337 339 338 337 337 339 341 343 342 339 340 341 341 345 345 346 346 346 341 342 345 345 344 341 341 340 341 342 345 346 339 339 340 340 340 340 341 340 341 340 340 341 341 340 340 341
329 330 331 334 335 334 337 337 337 338 335 334 334 334 334 335 333 334 334 333 333 332 332 331 330 332 333 333 332 333 333 334 332 332 331 336 336 336 336 337 338 337 336 337 338 339 339 340 340 342 345 344 344 344 345 346 345 346 346 345 344 345 343 341 341 342 345 345 345 340 340 340 339 338 335 337 339 340 341 341 341 341 340 341 341
330 331 332 333 335 337 336 336 337 337 335 333 334 333 335 334 332 332 332 331 331 331 331 331 332 331 332 330 329 333 331 332 333 335 333 334 334 335 338 339 340 339 336 339 341 342 342 345 344 342 344 344 345 345 346 345 346 345 345 343 343 345 345 343 342 344 344 345 343 340 339 336 335 337 336 337 336 338 340 341 341 342 342 342 342
332 329 330 333 333 332 336 336 338 338 337 333 334 334 334 332 333 332 332 332 331 331 330 330 329 332 331 329 331 331 330 330 333 333 333 334 333 333 335 337 337 339 340 340 339 341 341 341 342 341 343 344 345 345 345 344 343 343 342 342 342 344 344 343 343 343 344 345 342 338 338 336 338 337 337 339 340 340 340 341 341 341 342 342 341
328 330 332 334 335 337 336 336 335 337 338 336 334 334 333 333 333 333 332 331 331 330 328 328 332 333 332 332 329 326 327 327 329 331 330 333 332 332 334 335 336 336 339 337 339 340 340 340 340 342 343 343 343 345 344 344 344 341 342 342 343 343 344 343 343 343 344 346 339 340 338 338 338 336 337 338 340 341 339 340 340 341 342 342 342
330 331 332 334 336 336 338 337 337 337 336 335 334 332 334 334 334 333 333 332 330 329 329 331 331 331 333 333 331 328 326 326 328 329 329 331 331 333 334 334 334 334 336 337 336 337 338 339 341 340 342 343 342 344 344 343 343 344 342 342 343 344 344 343 344 344 344 344 341 339 338 338 340 338 337 337 339 339 339 338 336 339 341 341 342
330 331 332 334 335 336 336 334 336 335 335 334 333 332 333 334 334 333 333 332 332 331 330 331 329 329 332 332 332 329 327 327 327 328 329 331 331 333 330 332 334 334 336 334 336 337 338 338 338 338 340 343 343 344 344 344 344 344 343 343 344 344 345 344 343 342 342 343 341 341 341 340 340 339 338 339 339 339 337 338 337 338 341 341 341
331 332 332 333 335 335 333 335 336 337 337 337 335 334 334 334 334 334 332 333 331 333 332 329 331 331 330 332 331 328 327 325 327 327 326 329 330 333 332 331 331 333 334 334 334 336 336 336 337 338 338 340 342 343 343 344 343 344 343 344 343 344 344 343 343 342 343 343 342 341 341 341 340 339 338 339 339 339 338 337 336 337 339 340 341
331 330 331 332 336 335 335 335 337 340 339 337 337 336 336 335 335 334 335 333 332 334 332 332 330 331 332 333 332 329 326 326 327 326 327 327 329 330 330 331 330 332 333 333 335 336 337 335 336 336 338 339 341 343 343 342 343 343 344 344 344 345 344 344 343 342 342 342 342 341 343 341 341 340 339 339 340 340 340 339 338 337 338 340 341
330 331 332 334 335 337 336 338 339 341 340 337 337 336 336 335 337 335 334 335 335 332 332 332 332 332 333 333 332 328 327 327 327 327 328 328 327 328 328 330 331 331 334 334 333 335 335 336 336 338 339 341 342 343 344 341 341 342 344 343 343 343 342 342 342 343 342 344 345 345 344 343 341 340 340 339 339 339 340 339 339 338 338 339 340
332 333 334 335 336 337 337 338 339 342 342 339 338 337 338 338 337 337 338 336 334 334 332 332 333 334 334 333 332 329 330 327 328 328 328 325 327 327 328 330 332 333 335 335 334 336 335 334 336 336 336 338 342 344 343 343 341 341 342 343 343 342 342 342 342 343 344 345 344 344 344 344 341 341 340 339 339 339 339 339 339 339 338 337 337
331 333 336 335 336 337 338 338 339 340 341 341 340 338 341 340 339 338 339 337 334 332 333 334 333 333 333 333 332 329 328 328 327 329 327 326 328 328 327 329 332 333 334 334 332 334 333 333 334 334 333 335 338 342 341 342 340 340 341 343 342 343 341 341 341 342 343 343 344 344 343 343 343 344 343 340 337 338 339 339 338 338 338 338 338
333 334 335 336 337 337 338 336 338 339 342 341 342 342 343 341 337 338 338 337 335 333 333 334 333 333 333 331 332 330 329 328 329 329 328 328 328 327 327 327 331 333 331 334 334 333 333 332 330 332 333 334 336 340 342 342 341 340 341 342 342 341 342 341 341 340 341 344 343 344 344 344 343 344 344 340 340 339 339 339 339 338 338 339 338
335 335 336 337 337 338 337 336 338 338 341 341 342 343 343 343 341 337 339 339 334 334 333 334 334 333 333 332 333 332 330 329 329 329 329 328 326 327 326 329 330 332 333 333 334 332 333 332 332 332 330 331 335 337 342 341 341 341 342 342 342 341 341 342 342 341 342 342 343 344 344 344 346 344 344 343 343 342 340 340 339 338 338 337 338
336 336 336 336 336 338 339 337 337 339 340 341 342 342 341 343 340 339 340 339 336 333 335 335 334 334 334 331 333 333 331 330 330 330 331 328 326 327 326 330 331 331 332 332 331 332 333 331 332 334 334 331 331 335 340 341 340 342 342 342 342 342 342 342 343 342 343 343 343 343 344 345 345 343 344 342 343 343 341 341 340 339 339 338 339
337 337 338 336 336 337 337 337 338 339 339 340 341 340 340 340 337 338 340 337 339 336 335 335 334 332 334 332 333 333 333 331 331 330 329 328 327 327 328 330 332 331 331 332 331 332 333 332 333 335 335 334 332 335 336 339 339 340 341 341 341 339 338 340 340 340 339 338 341 341 344 345 345 346 344 344 343 343 343 342 340 340 340 339 338
337 338 338 337 337 336 337 338 339 339 339 341 341 340 340 340 339 338 338 336 338 338 336 334 334 335 333 334 334 334 333 332 331 331 331 328 326 327 329 331 332 331 332 332 331 331 331 331 332 334 336 336 333 336 339 340 339 339 339 341 341 340 337 337 336 334 335 336 336 336 340 341 344 345 345 345 344 344 344 344 343 343 344 339 339
338 338 338 337 337 338 337 338 338 339 339 340 338 334 335 333 333 335 335 337 337 337 338 335 336 334 335 334 334 334 333 333 332 332 332 329 327 328 330 330 330 331 330 330 329 328 330 331 329 331 333 334 335 335 338 340 340 340 339 340 341 341 340 339 339 337 336 336 335 336 336 337 341 342 344 345 345 346 345 345 343 343 345 342 340
340 339 338 337 338 336 337 336 338 340 340 335 334 334 332 332 334 335 334 335 335 336 338 338 336 335 336 335 334 333 334 334 333 332 331 329 329 328 330 329 329 330 330 330 330 329 330 331 329 330 331 331 332 335 336 339 337 335 338 338 339 340 338 337 338 340 339 336 336 335 335 336 337 339 341 342 344 346 346 345 345 345 344 345 343
338 338 337 337 338 339 337 337 338 339 338 338 337 338 336 334 333 332 333 332 333 333 333 336 337 338 338 337 336 334 334 334 333 334 333 330 330 328 329 328 329 329 329 328 328 328 329 329 330 328 330 329 329 332 334 337 330 328 325 326 330 333 334 333 333 335 336 335 335 335 335 335 335 335 337 338 340 340 343 345 345 345 344 343 343
338 337 337 338 338 338 338 338 338 337 338 339 337 336 338 340 338 337 335 334 338 339 338 339 340 338 339 338 337 337 334 333 334 333 332 332 331 330 330 329 330 330 328 327 327 327 327 327 327 327 326 329 328 331 333 333 327 330 331 327 322 323 327 328 332 334 334 334 333 333 333 334 335 335 335 334 334 337 338 341 344 345 345 344 343
336 336 337 337 337 337 338 338 338 339 338 338 339 340 341 342 342 341 340 338 335 338 340 340 338 338 337 338 338 338 336 335 333 331 332 333 332 331 331 330 331 332 329 328 329 325 328 327 325 327 329 325 325 327 331 332 330 328 321 321 320 324 317 321 326 330 333 333 333 333 333 333 334 335 335 333 333 334 336 338 338 339 342 343 340
335 334 336 336 335 337 338 338 338 338 339 339 340 340 341 340 340 341 340 339 337 335 334 333 335 336 336 338 338 338 337 336 335 333 332 333 333 333 332 332 331 331 330 328 328 328 327 326 326 325 328 327 323 326 327 330 330 331 325 323 321 318 318 322 323 325 329 328 330 332 331 331 333 333 332 333 333 333 334 336 338 337 338 339 338
334 336 336 337 337 336 338 339 338 339 338 340 341 340 338 336 335 333 331 332 331 332 331 332 333 334 336 339 339 338 337 338 336 335 333 334 334 333 333 332 331 331 330 330 329 329 328 328 328 327 326 328 327 326 326 329 330 329 329 328 325 319 317 321 321 315 329 328 328 328 329 328 330 331 331 332 332 331 332 334 336 336 336 337 335
334 335 336 337 338 338 338 339 338 338 339 340 341 340 338 337 337 335 334 333 331 334 336 337 337 336 338 339 339 340 338 338 339 337 335 335 335 335 334 333 333 333 332 331 329 330 328 328 329 329 327 328 328 323 324 326 328 328 328 328 327 326 325 319 315 319 317 322 328 324 326 327 328 329 329 330 331 331 331 333 334 335 335 336 335
333 334 337 338 338 339 339 339 339 338 339 340 340 341 338 338 338 338 336 334 334 335 337 338 340 339 338 339 339 339 340 339 339 338 337 336 336 335 335 335 332 332 330 331 330 330 330 332 333 332 331 330 330 327 325 324 323 325 327 327 327 327 325 324 324 319 317 316 318 325 327 328 329 328 329 329 329 330 330 331 333 333 333 333 334
334 335 334 338 339 340 339 340 339 340 340 341 339 339 340 339 338 336 335 336 337 337 337 338 337 340 338 339 340 339 340 341 340 340 339 338 337 337 336 336 335 334 331 333 333 331 331 332 331 331 331 330 331 330 329 326 327 324 326 327 326 325 325 326 326 326 319 319 318 320 321 325 328 327 328 329 329 330 329 330 331 331 334 334 334
336 336 335 337 338 339 340 339 339 339 340 341 340 340 341 340 338 338 336 335 337 337 337 337 337 339 337 338 338 338 338 340 341 340 340 339 339 338 337 337 337 335 334 334 335 334 333 332 332 332 333 332 332 331 328 328 329 329 327 327 324 324 324 324 324 323 324 323 318 319 322 320 320 324 327 327 328 328 329 330 331 331 332 334 334
337 336 335 335 337 339 339 339 339 338 340 340 340 340 340 340 337 337 337 335 336 336 336 337 337 338 337 338 338 338 339 339 340 342 341 340 341 340 339 338 339 339 338 337 336 334 334 334 334 333 333 331 331 331 331 331 331 329 328 327 325 324 322 321 322 323 323 321 319 320 322 321 321 322 325 325 328 326 328 329 329 330 332 333 332
Wind_Speed
1 6 5 6 4 7 10 10 11 11 11 10 9 9 10 9 9 9 8 7 6 6 6 6 6 6 5 5 5 5 5 5 5 5 5 5 5 5 4 4 4 4 3 2 3 2 2 2 3 2 2 2 2 1 2 2 2 2 2 2 3 4 5 5 6 6 6 6 6 6 6 7 8 9 9 9 7 9 8 6 9 7 6 1 9
1 8 4 5 5 8 10 11 11 10 10 10 10 10 10 10 9 8 8 8 7 7 7 7 7 7 6 6 6 6 6 6 6 6 6 6 5 5 5 5 4 4 3 3 2 2 3 3 3 2 2 2 2 1 2 1 1 1 2 2 3 3 4 4 5 5 5 5 6 6 5 5 6 5 5 5 4 9 7 8 7 7 2 6 6
3 7 4 6 8 11 11 10 10 10 10 10 10 10 9 9 8 8 8 8 8 7 8 8 8 8 8 7 7 6 6 6 6 6 6 6 6 6 6 5 5 3 2 2 2 2 2 3 3 3 3 3 3 2 2 2 2 3 3 3 3 3 3 3 4 4 4 5 6 6 4 4 2 3 4 5 6 7 7 7 4 3 1 7 10
7 4 6 9 11 11 11 10 10 10 10 9 9 9 9 9 9 8 8 8 8 8 8 8 9 9 8 9 8 8 7 7 7 7 7 7 6 6 6 6 5 4 3 1 2 2 3 3 3 4 3 4 4 4 3 3 3 3 3 3 3 3 3 3 3 4 4 4 6 7 3 3 6 7 4 5 8 8 8 8 7 8 4 9 4
6 5 5 6 9 11 10 10 10 9 9 10 9 9 9 9 9 9 9 9 9 8 8 8 8 8 8 8 9 9 8 8 8 7 7 7 7 7 6 6 5 5 4 3 3 4 4 5 3 3 6 8 5 5 5 4 3 3 3 3 3 3 2 3 3 2 3 1 2 8 2 4 4 5 3 5 7 9 9 9 8 8 4 7 8
6 6 5 7 9 10 11 10 10 10 10 10 9 9 9 9 9 9 9 9 9 9 8 7 7 8 8 8 8 9 9 9 8 8 7 7 7 7 7 7 8 7 6 5 4 2 3 3 5 7 11 5 5 4 3 3 3 2 2 3 3 2 3 2 2 2 2 2 8 4 4 4 3 3 2 3 8 10 9 9 10 9 9 11 10
7 6 6 7 8 10 10 11 10 11 11 10 9 9 10 9 9 10 10 10 9 10 10 10 9 8 8 8 8 9 9 9 9 8 8 7 8 8 9 8 7 7 6 4 5 4 3 3 4 6 6 2 3 4 2 2 2 2 3 4 4 3 2 3 2 2 3 7 2 4 3 1 0 2 4 4 7 9 8 8 9 11 12 13 15
6 5 7 8 8 10 10 11 11 11 10 10 10 10 10 10 10 11 11 11 12 10 10 10 11 10 8 7 8 8 9 9 9 9 9 8 9 11 8 6 5 5 6 4 3 2 3 4 5 7 5 2 3 1 2 2 2 3 4 4 4 4 3 2 2 1 2 4 2 3 3 1 1 1 5 6 8 10 10 11 11 13 16 16 14
6 6 7 8 9 11 10 10 10 10 10 10 10 10 10 10 11 11 11 11 12 12 10 9 10 11 10 8 7 8 8 9 10 10 9 10 11 10 9 6 6 6 6 8 3 3 4 5 4 6 4 2 2 2 1 2 3 4 4 4 3 3 3 2 3 4 4 2 3 2 3 2 2 2 5 7 8 11 11 12 12 14 14 16 18
7 7 7 7 8 10 9 9 9 10 9 9 9 9 9 10 11 11 11 11 11 12 12 11 10 9 11 9 7 6 7 8 9 9 10 9 4 8 9 8 7 6 4 7 4 2 4 4 5 5 5 4 2 2 2 2 3 3 4 4 3 4 2 3 5 6 2 1 2 3 2 4 2 1 6 6 9 11 11 12 11 13 13 17 18
7 6 6 8 9 8 8 8 8 8 9 9 9 10 10 10 11 10 10 10 12 12 12 11 10 11 11 10 8 6 6 7 8 9 9 8 4 7 10 12 14 14 7 6 4 4 5 5 5 7 6 4 3 3 3 4 4 3 3 3 3 2 3 5 9 2 1 1 2 1 2 5 2 1 8 7 11 12 11 12 13 15 16 18 19
7 7 7 7 8 8 7 7 7 8 9 9 10 10 9 9 9 8 9 11 11 11 11 11 11 12 12 10 9 8 7 6 6 7 8 9 14 17 18 14 14 15 19 21 15 5 6 5 6 6 5 4 3 3 3 3 3 3 3 2 2 4 3 5 7 3 2 1 1 1 1 2 0 5 8 9 12 13 12 13 15 15 16 19 20
8 7 6 6 7 7 6 6 7 8 9 9 9 9 8 9 8 8 10 11 11 11 11 10 11 12 12 11 9 8 7 6 4 6 7 10 15 2 2 4 5 6 5 12 22 15 4 5 6 6 5 4 4 3 4 3 3 3 3 2 4 4 3 5 5 3 2 1 1 1 1 2 2 7 7 10 12 13 13 14 14 15 16 18 19
8 7 6 6 6 6 5 5 7 7 8 7 7 8 9 8 8 9 10 10 10 11 11 11 11 11 11 10 10 9 6 5 4 6 8 11 8 1 2 4 6 8 4 9 13 21 4 7 7 6 5 4 4 3 3 3 3 3 3 4 4 4 3 7 4 2 1 1 2 2 3 2 4 5 8 8 9 12 13 14 14 14 17 18 19
8 8 7 6 6 6 5 5 6 5 6 7 7 8 9 8 7 8 9 10 11 11 11 11 10 10 10 9 9 9 8 6 4 6 8 8 6 8 6 8 7 6 6 7 10 13 5 7 8 7 5 4 3 3 3 2 3 3 4 4 5 3 5 4 2 1 1 1 2 2 3 4 7 7 6 3 5 7 10 13 15 14 15 17 17
7 7 6 5 6 5 4 4 2 4 5 6 6 8 7 6 6 8 9 11 11 12 12 12 12 11 11 9 9 9 9 7 7 5 6 8 8 7 5 5 5 4 5 7 8 9 5 6 6 6 4 4 4 2 2 3 3 4 4 5 5 2 4 7 2 3 1 2 3 2 6 7 9 9 6 3 6 6 2 9 13 15 13 13 13
7 6 6 7 5 4 3 3 5 3 4 5 6 7 6 6 6 8 10 11 11 12 12 12 12 12 11 10 9 8 6 6 6 6 6 7 7 7 5 1 1 3 3 8 8 8 3 5 6 6 5 4 2 2 2 2 3 3 3 4 4 1 3 8 2 2 3 4 2 6 6 4 5 7 7 8 10 7 4 6 4 9 11 11 11
6 5 6 4 4 3 3 3 4 4 5 4 4 5 6 6 7 8 9 10 11 11 11 11 11 11 10 10 8 7 6 7 8 8 8 8 7 5 3 4 5 5 4 3 7 5 5 4 5 4 3 2 2 1 2 3 2 3 5 5 4 6 3 6 2 2 5 6 7 5 4 6 7 6 4 5 10 8 10 3 3 7 4 4 7
5 4 4 2 2 2 2 3 3 4 4 4 5 6 6 6 6 7 8 9 11 12 11 11 10 11 10 10 8 6 6 9 8 9 10 10 10 7 5 4 5 6 5 5 5 5 7 6 4 4 4 3 2 2 2 3 3 1 2 1 3 3 1 6 4 10 5 2 2 5 3 5 6 7 5 8 10 11 10 11 7 9 6 5 5
4 4 3 2 3 3 4 3 4 4 4 4 4 5 6 5 4 5 7 8 10 11 11 10 9 10 9 9 7 6 4 7 9 6 8 9 6 5 6 7 5 6 5 4 5 5 6 5 5 5 4 3 3 2 4 3 3 3 3 4 2 3 3 2 9 4 3 2 3 2 4 3 6 8 7 8 12 14 11 10 10 9 6 4 5
3 3 3 3 3 3 3 4 4 4 4 4 3 4 5 4 5 5 5 7 9 10 10 9 9 9 8 8 6 5 6 5 4 3 4 5 5 5 5 6 6 5 6 5 2 3 4 4 5 5 2 1 2 4 4 4 5 5 5 2 4 4 5 8 1 3 4 4 1 4 4 4 4 7 8 8 11 13 14 15 13 11 10 5 4
3 3 3 2 2 3 5 4 4 4 3 2 3 3 4 4 7 7 8 8 9 10 9 8 10 8 8 7 7 6 6 6 5 4 4 3 3 3 4 4 8 10 6 5 5 5 4 4 2 2 1 2 5 4 4 5 5 4 2 4 3 3 7 0 4 3 2 2 3 4 3 5 5 5 6 8 11 14 13 14 14 12 11 9 7
4 3 4 3 3 4 4 5 4 3 3 2 2 3 5 5 6 6 7 8 9 10 9 9 9 9 9 8 7 6 6 6 6 4 3 5 3 3 3 4 7 7 7 6 4 3 2 1 0 2 4 8 3 2 1 1 4 7 5 1 3 4 6 2 5 3 3 3 2 5 3 5 6 4 5 7 11 12 13 14 15 13 11 10 8
4 4 5 4 4 4 5 4 4 3 3 3 3 4 4 5 6 6 6 7 8 8 9 9 9 9 8 7 6 7 6 5 6 3 1 2 3 4 2 4 6 9 2 5 6 3 3 5 3 7 8 2 3 2 2 2 2 2 3 2 3 4 4 2 3 3 3 3 4 6 6 5 5 8 8 2 6 9 12 13 13 12 12 9 8
4 2 4 4 5 4 3 4 4 3 3 2 3 4 4 5 6 6 7 7 8 7 8 8 9 9 8 7 8 6 5 5 5 4 3 4 4 4 4 5 4 3 5 2 3 2 3 3 1 1 5 3 5 5 4 3 2 2 3 3 3 4 3 3 2 3 3 3 5 7 10 12 7 9 6 5 5 8 10 12 12 12 12 11 9
2 3 5 5 4 4 3 4 3 3 3 3 3 3 4 5 5 6 6 7 7 7 7 8 9 9 8 8 6 6 6 4 4 4 5 4 4 4 4 4 4 5 4 4 3 3 3 3 4 5 4 4 4 4 3 3 3 3 4 4 3 3 3 4 3 3 3 3 7 9 10 10 8 9 10 8 7 7 9 10 10 11 10 10 9
2 5 4 4 4 3 3 3 3 2 2 3 3 4 5 5 6 6 7 7 7 7 8 8 8 9 9 8 8 8 6 5 3 3 4 4 4 5 5 5 4 5 5 5 5 4 4 4 4 5 5 5 5 4 4 5 5 4 4 4 4 4 3 4 4 3 3 2 7 7 8 7 6 5 4 5 7 8 7 9 10 11 11 10 9
3 4 4 3 4 3 3 3 2 2 2 2 3 4 5 5 6 6 6 6 7 7 8 8 8 8 8 8 8 7 6 5 3 3 3 3 4 5 4 5 5 6 5 5 5 5 4 4 4 5 5 5 5 4 4 5 4 4 5 5 4 4 4 4 4 4 3 3 7 5 6 6 6 5 4 4 5 4 7 7 7 8 9 8 8
3 3 4 3 3 3 2 2 2 2 3 3 4 4 5 5 6 6 5 5 6 7 6 8 8 9 8 9 9 7 6 5 5 4 3 3 3 5 4 5 5 6 6 6 6 5 5 5 5 5 4 4 4 4 3 4 3 4 4 4 4 4 5 5 4 4 4 3 5 6 7 7 7 6 6 5 5 5 7 8 8 8 10 10 11
2 3 3 3 3 3 3 3 2 4 3 3 3 4 4 5 6 5 4 5 5 5 7 8 8 9 8 9 9 7 7 7 6 5 4 3 3 3 3 5 5 5 5 6 5 5 5 5 5 5 5 3 4 4 3 4 5 4 4 4 4 4 4 4 4 4 4 3 5 6 7 6 6 6 5 5 4 5 6 10 9 7 7 9 9
4 4 3 3 3 2 3 3 3 3 3 3 4 3 4 5 5 5 5 5 5 5 6 7 8 9 9 9 9 8 8 8 7 6 4 3 3 2 4 4 5 5 5 5 5 4 4 5 5 5 5 4 4 3 3 4 4 4 5 5 4 4 5 4 4 4 4 4 5 3 5 7 7 7 5 3 3 4 5 7 14 9 8 10 11
2 3 2 4 3 3 3 3 2 3 2 3 3 3 3 4 5 4 5 5 5 4 5 6 7 7 8 8 8 8 8 8 8 6 5 4 4 4 4 4 5 4 5 5 5 5 4 4 5 4 4 4 4 4 3 4 5 5 5 5 4 4 5 5 4 4 5 5 4 3 5 5 7 7 6 3 3 3 3 4 7 10 9 9 9
2 3 3 3 4 3 3 3 2 2 3 3 3 3 3 3 4 4 4 4 5 5 6 6 6 8 7 8 8 9 8 7 7 7 6 6 5 4 4 4 4 5 5 5 5 4 4 4 4 4 4 4 4 4 4 4 5 5 5 5 5 5 5 5 5 5 5 4 4 4 3 4 8 6 7 7 5 3 2 2 3 5 8 7 9
4 3 4 4 3 2 2 2 2 2 2 3 3 3 3 3 3 3 4 4 5 5 6 5 7 7 8 8 8 9 8 8 8 7 6 5 4 5 5 4 4 4 4 5 4 4 5 5 4 4 5 4 4 4 4 5 5 5 5 5 6 5 6 6 6 5 5 5 4 4 3 3 4 5 6 10 8 3 3 2 2 3 2 8 7
2 4 5 4 4 3 2 2 2 3 2 3 3 3 3 3 3 3 4 4 5 5 5 6 6 7 8 8 8 8 9 9 8 6 6 5 5 4 5 5 5 4 4 4 4 5 6 6 6 5 4 4 4 4 5 6 6 6 6 5 6 6 5 6 6 6 6 5 4 4 4 4 4 4 5 6 6 6 5 3 3 4 4 6 7
3 4 4 4 4 3 3 3 3 3 3 3 2 2 2 2 2 3 4 4 4 5 5 5 6 7 7 8 8 9 9 9 9 7 6 6 5 5 5 5 5 4 4 4 5 5 6 6 6 6 5 4 4 4 5 6 6 6 5 5 5 5 5 5 5 6 5 5 5 4 4 4 4 6 3 5 5 6 6 5 4 3 3 5 6
4 4 4 5 4 4 3 3 3 3 3 3 2 1 1 1 3 3 3 4 5 5 5 5 6 6 7 8 8 8 8 9 10 9 6 7 6 5 5 4 4 5 5 5 5 5 6 5 6 6 5 3 4 5 5 5 5 5 6 5 5 5 5 5 5 5 5 5 5 5 5 5 5 4 4 4 3 6 5 5 5 4 3 2 4
4 5 5 4 4 4 3 2 2 2 2 2 1 1 1 1 2 3 4 4 4 5 5 5 5 6 6 7 7 8 7 7 8 8 7 8 7 6 6 5 4 4 4 4 5 6 6 6 6 6 6 5 5 5 6 5 4 5 5 6 6 5 5 5 5 5 5 6 6 6 5 4 4 5 4 4 4 4 5 6 5 6 5 3 2
4 5 5 4 4 4 3 3 2 2 2 1 1 1 1 1 2 3 3 4 4 4 5 5 5 6 5 5 6 7 7 8 7 8 8 8 7 7 6 6 5 5 5 4 5 6 6 7 7 6 5 5 5 5 5 4 4 5 5 6 6 7 6 6 5 6 6 6 6 6 5 5 4 4 4 3 3 4 4 3 3 4 5 4 3
5 5 6 5 4 4 4 3 3 2 2 1 1 1 1 2 3 3 3 4 4 5 5 5 6 6 5 5 5 5 7 8 8 7 7 8 8 7 6 6 6 5 6 6 6 6 6 6 7 7 6 5 5 5 5 4 4 4 5 5 5 6 6 5 6 5 5 6 5 5 6 5 4 4 4 3 3 3 3 3 3 3 3 6 3
6 6 6 6 5 4 4 4 3 3 2 1 1 2 2 2 2 4 3 3 4 4 4 5 5 6 6 5 4 4 5 5 7 7 7 7 7 7 7 6 6 6 5 6 6 7 6 5 4 5 7 6 7 5 5 3 2 3 3 4 5 5 5 6 6 5 5 5 5 6 6 5 5 4 4 4 4 3 2 3 2 2 2 2 5
7 7 7 7 6 5 5 4 3 3 2 1 1 1 2 3 3 4 3 4 4 5 5 5 5 5 5 5 4 4 4 5 5 6 6 7 7 7 7 7 6 6 5 6 6 5 6 5 4 3 5 6 6 8 6 2 1 2 2 4 4 3 5 5 5 5 5 4 5 5 5 5 5 5 4 3 4 4 3 2 3 2 3 2 2
7 8 7 7 6 5 4 4 3 2 2 2 1 2 2 3 3 4 4 4 4 4 4 5 5 4 4 4 4 3 3 4 6 7 6 6 6 6 7 7 7 7 7 7 7 7 7 7 6 4 3 4 5 6 7 7 3 3 2 1 3 2 3 4 4 4 5 5 5 5 5 5 5 5 4 4 4 4 3 3 3 3 2 2 2
7 7 7 7 6 5 5 4 3 3 2 2 2 2 2 2 2 2 3 3 4 4 4 4 5 5 5 5 5 4 3 4 5 6 6 5 5 5 6 6 6 6 6 7 8 8 8 7 7 6 5 3 5 6 7 8 7 6 1 3 3 4 2 5 2 3 4 4 5 5 5 5 5 5 4 4 4 4 4 3 3 3 2 2 2
8 8 8 7 5 6 6 5 4 4 3 3 2 2 2 2 1 2 2 3 3 3 4 4 5 5 5 5 5 4 4 4 4 4 6 5 4 4 5 5 5 7 6 6 7 8 8 8 8 7 8 6 5 4 6 7 9 8 7 2 1 1 4 3 4 2 1 1 4 4 5 5 4 4 4 4 4 3 2 2 2 2 2 1 2
8 8 8 7 6 6 6 6 4 4 3 4 3 2 2 2 2 2 3 2 4 4 4 5 4 5 5 4 4 4 4 4 3 3 4 4 3 3 5 6 6 6 7 7 7 6 7 7 8 7 7 7 5 5 4 5 6 7 7 6 6 6 5 5 6 3 4 3 2 3 4 5 4 3 3 3 3 3 3 1 1 1 1 1 2
8 8 8 7 7 6 6 6 4 4 4 4 4 2 2 2 2 3 3 3 4 4 3 3 3 3 3 3 4 3 3 4 4 4 3 3 3 3 4 5 5 5 5 5 7 6 7 7 7 7 7 6 6 6 6 4 3 5 5 5 6 5 5 5 5 4 2 3 2 3 4 5 4 3 2 3 3 2 3 2 1 1 0 1 1
9 9 8 7 8 7 7 6 5 4 4 4 4 3 2 2 3 2 2 3 4 4 3 3 3 2 3 3 2 3 3 3 3 4 4 3 3 3 4 4 5 6 5 5 6 6 6 5 5 5 5 5 6 6 6 6 5 4 5 4 3 3 4 4 4 5 3 4 3 3 3 5 3 3 3 4 4 3 2 3 2 2 2 1 1
9 9 9 8 7 7 6 6 5 5 5 5 4 4 2 2 2 2 3 3 3 2 2 3 3 3 3 3 2 2 2 3 3 3 3 3 2 2 2 3 4 5 5 5 4 4 4 4 5 4 4 5 4 5 5 5 6 5 4 4 4 3 2 3 3 4 5 5 3 5 5 4 2 3 4 3 4 4 4 2 3 3 3 3 2
8 9 8 8 8 7 7 7 6 5 5 6 4 4 3 3 2 2 2 3 2 3 2 3 3 2 3 3 3 2 2 2 2 2 3 3 3 2 2 2 2 2 2 2 2 1 2 2 3 3 3 3 2 3 4 4 4 4 4 4 4 4 3 3 4 4 3 3 5 6 5 7 5 4 4 4 3 3 4 3 3 4 4 3 3
8 8 8 8 8 8 7 7 6 5 6 6 5 5 4 3 2 2 1 2 2 2 2 3 3 3 3 3 3 3 2 3 2 2 2 2 2 1 2 2 1 0 0 1 0 1 1 1 1 1 1 2 2 2 2 2 3 4 4 4 5 6 5 6 5 5 5 6 6 5 5 7 6 5 5 5 5 2 2 2 4 4 3 4 3
Wind_Direction
286 98 84 63 22 70 74 70 71 69 70 69 67 60 56 51 46 45 42 40 33 25 13 8 2 353 350 347 339 338 339 336 340 345 346 350 350 356 351 351 359 1 14 14 328 290 299 262 257 271 273 272 298 14 40 27 351 322 345 317 345 326 332 332 335 340 335 331 326 326 327 319 317 317 312 288 283 281 272 243 238 254 261 160 233
31 75 68 71 50 65 69 69 67 69 67 61 56 51 46 43 40 34 31 26 20 16 15 12 5 355 349 341 337 334 332 334 337 337 343 344 346 347 352 357 356 15 14 30 332 301 317 327 313 301 329 313 360 36 55 23 336 351 334 355 341 337 338 350 338 342 339 333 329 320 311 306 301 297 307 287 246 258 273 256 240 250 244 128 227
76 86 82 81 79 74 72 73 71 66 61 59 54 49 47 43 38 35 30 25 21 14 7 4 1 358 355 346 337 333 329 332 334 338 338 341 341 344 347 352 359 16 34 1 353 335 339 326 332 333 326 346 355 19 46 21 19 22 5 358 332 351 2 357 346 350 337 336 335 320 271 231 255 291 259 241 215 229 230 247 275 306 213 171 211
90 78 109 101 86 73 72 69 67 65 63 58 52 50 46 43 40 34 31 28 21 16 9 2 356 351 350 348 342 339 332 331 334 335 340 336 337 338 343 344 351 357 357 5 349 3 358 330 356 326 329 348 10 22 17 39 29 25 14 5 348 352 6 358 359 349 346 356 329 299 241 235 202 177 221 211 194 194 208 203 175 200 196 208 194
86 104 106 94 85 74 66 64 65 62 58 56 53 49 46 45 39 35 31 27 24 16 9 3 355 345 341 342 342 343 341 339 337 339 336 334 336 337 337 346 348 346 350 360 13 17 12 0 345 344 14 16 17 35 7 358 13 19 18 8 3 343 344 350 347 355 22 351 303 253 240 244 230 138 244 219 193 190 195 190 183 193 206 135 124
98 92 91 81 74 75 64 65 60 58 58 54 53 51 47 40 36 32 26 21 16 12 5 359 0 352 343 337 336 339 343 343 346 343 337 337 333 340 342 351 343 351 337 357 358 22 59 40 357 30 44 3 348 15 359 350 6 7 14 360 353 351 341 352 359 20 316 240 223 251 254 250 249 146 349 212 183 176 171 183 188 181 174 150 142
92 87 80 78 77 68 69 61 58 58 56 56 53 48 42 35 29 23 16 9 6 5 0 357 356 359 353 340 332 332 339 342 342 342 338 331 341 336 357 350 344 348 323 13 344 4 355 60 51 60 79 344 7 353 9 353 344 348 346 356 336 332 325 325 5 354 330 266 309 288 267 284 352 242 91 159 168 162 156 172 177 177 158 146 140
88 87 79 74 69 75 64 59 57 56 56 55 50 43 33 27 17 9 5 3 359 359 358 353 346 346 351 347 336 331 333 339 338 338 341 344 352 354 329 329 333 322 336 338 347 20 10 34 48 82 85 48 21 356 1 360 328 339 0 347 337 332 334 315 1 26 300 291 306 299 323 351 253 180 122 160 154 153 152 157 157 153 158 151 143
93 92 89 83 80 69 63 59 59 57 52 46 41 32 23 16 10 4 2 1 358 352 359 350 342 339 339 341 343 334 331 333 333 335 339 5 7 328 312 330 324 320 353 333 8 1 37 26 37 78 91 97 43 351 16 355 346 347 346 354 335 349 336 353 312 273 228 309 281 307 328 295 254 138 147 164 157 152 152 152 148 144 149 145 137
93 81 77 79 79 72 65 59 55 52 48 40 32 24 17 9 6 8 6 3 356 0 356 351 344 343 334 340 335 336 336 331 331 334 339 10 358 314 318 322 321 340 27 306 309 29 46 49 39 53 79 67 70 28 14 352 343 2 344 338 345 348 340 312 277 248 302 245 292 312 356 321 249 179 132 161 156 159 153 159 149 153 149 151 139
94 85 84 83 76 68 64 57 50 47 40 34 23 14 10 4 10 8 2 3 10 3 357 351 345 344 339 338 335 331 320 330 331 333 341 355 355 323 330 332 344 341 346 300 327 37 35 48 43 49 48 53 59 39 26 13 6 348 342 341 331 325 328 305 281 241 277 312 314 325 102 251 279 91 137 152 150 159 157 149 145 145 151 144 135
99 91 82 85 94 70 64 49 42 37 31 22 15 3 359 5 14 6 1 14 8 4 358 354 350 348 346 341 332 328 329 326 328 336 343 344 16 9 354 2 352 333 357 340 327 7 44 30 48 50 43 46 44 34 12 9 6 353 324 318 312 295 324 314 299 340 350 322 304 292 239 221 293 106 143 158 150 150 153 149 143 147 147 139 136
98 94 91 98 98 77 58 45 33 25 22 11 3 1 0 14 15 12 14 14 10 6 2 0 1 357 355 355 348 340 333 340 333 337 352 17 57 26 347 332 342 11 13 347 334 314 52 59 56 50 46 34 18 15 2 350 352 330 324 306 316 313 316 316 297 329 341 322 311 248 43 10 78 113 144 156 149 149 145 140 143 146 144 136 138
98 97 102 96 83 93 62 42 27 19 9 3 3 2 9 15 17 17 19 14 12 9 5 5 8 5 5 11 7 360 355 8 6 359 357 40 78 62 32 12 13 30 29 19 328 296 21 65 61 48 34 38 19 8 9 353 340 317 321 322 323 332 304 261 304 321 348 8 44 3 28 35 89 132 140 140 145 145 144 143 144 145 145 142 140
92 84 76 85 102 83 71 50 20 20 11 8 8 11 17 19 22 21 20 20 16 11 10 12 10 7 9 14 16 4 16 32 30 9 37 48 31 55 6 17 10 23 11 48 311 293 3 50 55 46 27 13 23 23 355 346 322 341 340 342 338 329 298 287 277 355 21 50 67 46 44 60 70 61 53 92 112 129 142 143 146 145 144 142 140
78 88 96 77 75 90 77 92 90 23 31 25 19 18 22 20 25 26 27 24 20 16 13 13 13 12 12 14 19 21 27 32 29 35 43 51 33 41 54 48 11 352 330 65 288 269 21 32 47 48 25 350 10 19 3 333 356 345 341 345 319 3 299 312 312 18 37 73 70 62 44 51 43 60 56 42 54 66 98 145 143 144 143 138 136
93 84 70 72 64 55 58 41 50 279 83 36 34 24 24 23 27 31 31 29 24 21 17 15 18 17 12 11 16 27 42 33 29 30 48 55 35 11 20 53 151 301 327 25 303 287 26 27 41 32 26 354 349 10 358 2 358 3 0 326 337 20 334 326 359 54 37 41 26 52 77 121 94 92 98 94 98 111 101 347 129 136 137 139 142
89 81 83 74 65 58 41 22 37 39 47 82 100 48 29 20 28 33 33 34 31 23 19 20 21 18 14 15 12 17 31 41 42 41 45 49 30 355 338 322 333 318 312 206 246 331 4 18 29 26 13 341 350 16 21 23 6 11 27 11 345 22 5 312 298 90 57 17 22 64 61 90 99 119 141 99 106 126 112 166 113 101 88 101 141
98 85 81 80 80 60 37 43 55 42 50 47 51 81 36 17 26 36 37 38 31 24 19 20 24 20 19 10 7 8 42 53 61 50 55 47 12 352 5 325 308 329 26 13 3 3 19 27 26 38 20 16 22 26 58 37 39 26 15 97 21 2 340 260 36 42 36 85 89 54 87 105 126 123 128 129 124 133 137 142 120 104 106 129 137
101 99 91 78 51 23 24 53 56 56 58 51 62 54 51 348 31 45 48 40 34 23 22 24 24 29 20 12 8 29 39 71 42 48 57 68 58 21 4 341 341 20 37 14 3 359 21 29 33 27 25 36 57 69 85 66 62 49 38 38 9 288 236 49 40 54 36 46 71 103 88 153 129 130 132 121 133 138 154 142 130 135 138 147 179
123 122 85 74 63 60 57 56 73 76 61 68 65 60 51 339 66 95 76 63 33 32 22 39 32 44 24 30 24 37 45 67 65 35 80 61 79 63 52 346 8 32 33 31 21 21 35 45 39 31 27 40 146 114 84 77 77 57 40 8 273 246 46 44 331 38 18 12 107 80 96 109 131 123 133 137 127 133 145 148 149 150 157 177 261
109 97 101 88 76 73 58 64 79 76 58 66 76 56 43 25 40 50 42 34 40 28 30 27 43 34 34 35 32 32 37 46 46 32 42 55 64 13 44 46 36 35 31 32 15 29 48 57 48 38 287 227 241 209 136 109 88 52 56 286 252 52 69 127 49 52 61 62 23 81 103 102 112 120 133 137 138 142 151 149 151 152 157 172 186
100 112 100 106 66 69 61 64 67 69 67 83 75 57 40 24 37 43 45 44 40 40 35 26 35 38 35 31 26 23 36 39 43 29 52 70 66 354 4 52 72 68 26 342 15 25 65 53 326 229 222 227 232 68 30 79 113 172 196 210 50 46 66 45 62 45 45 37 33 62 75 108 111 130 144 151 136 145 151 150 153 162 159 169 168
98 87 95 101 80 61 61 67 72 64 45 51 50 51 39 25 38 37 42 35 42 40 46 38 37 30 36 24 35 16 28 34 33 22 356 42 121 171 199 197 126 88 44 310 210 157 163 175 221 257 235 8 27 43 43 72 75 51 58 64 68 63 89 82 75 70 52 49 60 66 75 98 85 69 39 47 133 143 155 160 159 162 157 162 165
88 125 94 79 71 64 63 70 74 56 40 48 66 49 24 35 38 38 36 35 37 36 38 43 38 28 23 23 18 14 8 19 20 10 30 28 19 30 32 26 37 103 220 200 46 93 191 31 45 310 27 17 28 31 22 55 36 81 78 59 72 77 95 85 87 71 66 43 63 59 65 58 51 93 149 152 134 171 153 158 163 160 160 162 163
112 85 75 90 81 73 60 73 70 50 39 37 44 62 35 31 39 38 35 36 37 35 34 32 32 26 25 20 11 16 359 5 18 6 11 30 21 17 39 38 32 36 351 44 32 19 37 50 30 24 25 26 37 40 40 28 72 53 64 75 85 94 83 98 89 74 52 44 67 59 85 107 118 138 155 161 162 150 152 160 158 157 161 162 158
135 83 79 70 78 67 64 73 76 76 46 23 51 51 42 33 39 35 27 32 34 28 31 29 33 29 17 20 11 7 16 360 3 16 19 4 23 23 24 30 23 42 19 19 25 27 22 37 35 35 25 26 37 50 40 53 34 47 67 75 74 79 93 100 102 87 75 56 80 81 89 98 119 131 138 146 159 148 150 166 160 161 170 164 152
81 93 87 85 90 86 70 71 77 52 47 46 42 54 48 33 39 39 42 33 31 33 32 32 28 34 21 19 15 11 7 24 8 29 22 18 18 22 25 26 15 34 25 26 32 25 29 29 37 44 35 26 42 37 40 42 43 47 48 52 75 84 77 82 86 81 72 48 73 75 93 102 119 137 136 146 125 148 150 144 144 168 178 166 171
96 104 92 101 98 95 95 86 68 63 47 17 46 50 46 41 39 35 42 37 39 40 31 35 29 26 30 21 19 23 20 38 29 37 34 31 31 21 24 34 26 27 15 23 22 21 24 24 21 26 38 24 46 49 48 54 59 47 62 70 70 81 90 86 89 91 76 60 82 86 102 112 126 127 126 120 123 138 135 131 132 187 184 175 183
127 108 112 96 91 113 89 75 50 40 31 31 43 49 40 42 47 42 41 49 50 42 33 37 31 27 31 21 28 27 36 33 34 28 37 32 40 37 33 32 36 28 17 22 19 18 16 22 18 18 14 36 49 53 41 52 43 42 49 65 76 81 84 88 81 85 98 84 55 64 91 117 112 120 109 113 141 147 148 135 147 205 200 192 190
141 132 125 92 108 98 72 81 70 53 30 35 44 48 40 40 39 37 44 41 39 42 41 34 34 30 30 31 30 35 40 38 33 31 42 34 45 49 44 25 29 26 24 21 27 10 19 21 18 14 12 11 38 67 52 66 62 61 51 51 60 80 85 88 101 97 88 85 92 94 95 93 94 99 97 99 120 143 144 148 151 192 196 202 195
136 129 121 109 98 80 87 91 73 64 48 56 60 49 39 42 45 45 51 38 31 40 41 37 36 34 33 35 38 36 37 42 30 33 42 37 43 26 42 29 26 24 24 9 32 7 21 22 12 4 5 12 33 51 53 62 58 57 52 59 61 70 80 86 85 78 83 82 83 93 81 93 94 102 104 120 116 128 128 166 164 167 199 200 196
110 137 126 110 108 95 99 106 97 83 66 57 52 51 42 38 46 45 54 43 34 41 43 41 36 43 44 37 41 44 38 37 40 34 32 47 38 35 42 28 33 15 24 5 20 10 28 18 25 8 10 30 37 61 60 61 66 63 57 51 57 60 72 83 85 86 80 82 77 75 62 90 95 107 99 90 61 89 134 190 168 176 189 156 221
141 149 128 135 120 96 101 116 118 107 75 60 45 44 30 27 30 46 50 37 42 46 46 48 43 41 55 43 42 40 43 39 35 36 28 45 45 41 34 29 27 9 35 10 32 24 31 22 7 22 18 24 38 51 59 56 61 70 70 67 61 52 59 66 70 78 78 76 79 73 84 69 94 96 100 99 86 51 86 65 104 130 182 165 187
130 129 146 137 136 108 112 113 132 119 128 88 58 42 30 20 24 38 50 33 51 50 49 47 50 48 44 51 42 44 42 38 35 29 32 28 32 38 19 31 14 30 27 37 20 33 32 24 14 7 28 30 42 53 68 70 63 62 62 61 63 70 72 71 73 75 78 81 75 74 61 64 81 90 102 77 105 110 83 95 122 152 192 169 200
158 148 148 141 145 131 135 119 139 127 107 89 76 41 30 12 32 44 52 47 49 54 51 49 47 46 50 51 45 42 41 40 40 33 27 27 25 32 34 26 11 43 45 43 35 39 33 25 18 5 19 36 43 56 70 74 69 69 71 71 72 73 72 74 73 79 81 85 83 78 72 69 60 72 59 107 111 93 102 115 120 149 149 177 194
166 157 155 157 151 144 143 131 135 129 112 106 90 72 36 48 50 57 62 51 46 51 54 53 53 55 45 48 46 43 42 39 38 35 29 33 35 36 43 28 22 40 48 43 49 37 32 29 26 14 9 20 60 66 70 71 78 69 63 63 64 58 61 60 64 73 80 70 73 72 75 71 81 79 69 69 79 102 87 104 125 141 153 204 167
177 170 165 159 148 151 147 136 122 122 112 103 89 45 65 50 65 65 57 59 53 51 55 53 57 56 54 50 46 48 40 39 31 28 33 38 45 44 49 33 39 41 62 53 41 41 35 25 30 24 14 16 47 53 66 65 64 68 66 57 53 60 63 62 65 62 63 65 63 61 66 63 60 63 76 75 68 85 136 123 121 117 116 146 135
181 175 170 161 157 152 147 150 152 140 154 153 127 165 125 109 78 77 80 72 75 68 55 61 58 59 62 63 49 44 46 38 36 33 32 36 48 52 53 49 51 46 38 37 44 40 37 34 26 35 25 24 31 52 49 64 76 77 64 60 61 59 60 57 55 56 62 66 66 65 53 63 62 60 62 66 72 71 68 80 140 145 114 112 128
176 175 172 166 167 154 152 154 149 155 161 191 195 137 99 73 74 85 68 59 61 62 56 51 58 58 65 59 57 46 46 43 43 38 38 39 47 54 50 57 56 51 47 39 32 39 32 33 37 29 37 41 36 34 42 45 76 80 90 75 61 62 57 53 51 52 53 52 57 57 59 48 54 70 64 66 78 74 78 90 101 88 121 122 101
173 171 173 172 173 157 164 160 148 166 193 132 76 39 49 86 79 64 62 70 64 75 72 54 53 60 53 59 61 52 48 41 37 38 38 45 49 51 51 42 50 53 50 45 36 33 31 22 43 40 40 41 41 30 28 2 33 93 91 94 90 70 60 52 44 40 41 42 42 43 46 41 43 43 58 58 71 78 75 93 98 108 84 113 149
171 174 175 174 176 166 169 157 152 160 160 130 79 78 46 43 34 51 46 52 56 54 58 62 59 65 60 62 65 60 57 59 48 44 40 41 44 50 50 48 47 49 45 48 40 37 30 30 11 78 57 48 43 25 26 353 79 89 116 114 114 91 88 65 45 42 34 42 42 42 36 39 27 29 31 71 70 59 64 73 82 89 106 118 94
173 171 174 174 173 171 175 159 160 156 149 145 143 78 70 52 38 48 37 65 67 54 56 61 63 69 68 67 68 72 51 63 59 59 59 46 43 45 47 49 45 44 44 43 49 46 38 36 33 20 63 75 61 34 29 3 23 10 23 246 107 139 120 108 85 48 37 29 28 29 29 33 30 11 17 12 37 61 62 54 59 59 66 74 108
171 171 171 174 172 178 172 172 162 159 149 146 121 102 74 68 66 46 69 48 58 73 81 85 79 74 71 62 69 67 60 55 45 56 70 48 42 46 49 41 42 40 46 43 32 37 40 38 40 35 8 62 54 52 29 27 17 347 59 13 34 307 157 66 18 81 62 42 42 43 24 19 17 14 6 17 16 22 34 45 50 55 62 71 98
174 170 174 173 175 173 172 172 171 166 152 146 151 132 141 140 107 130 119 118 107 84 77 71 62 66 63 59 59 54 57 64 69 41 64 68 46 41 49 51 41 46 41 49 44 35 33 36 34 44 31 14 54 52 49 29 32 21 2 328 204 151 32 42 305 107 2 34 59 38 31 11 6 9 8 21 3 351 27 48 17 44 57 85 81
172 169 171 172 170 167 169 172 175 169 159 159 160 178 148 121 124 121 105 89 82 65 53 45 48 47 48 57 61 52 57 58 71 60 47 51 53 47 46 53 56 51 43 48 51 49 41 37 38 32 42 28 21 37 57 55 41 35 36 43 21 7 356 352 306 58 139 131 31 28 14 357 343 335 350 352 355 350 333 349 91 13 359 54 87
167 167 167 167 168 166 171 174 178 172 164 163 168 171 152 122 106 91 72 65 68 76 66 58 45 51 55 53 55 52 54 64 51 69 76 55 49 37 47 43 53 53 59 47 50 45 52 39 34 39 34 35 28 48 27 47 67 47 51 52 33 29 25 353 10 313 339 84 84 21 16 4 336 319 325 318 321 324 333 302 331 271 169 177 100
165 162 161 165 171 170 172 176 178 173 168 159 173 181 152 137 124 115 93 74 61 66 62 69 56 41 46 51 56 67 49 47 56 54 66 82 60 55 56 56 46 59 45 53 45 42 37 53 37 32 38 32 32 32 42 34 30 52 35 30 55 59 39 40 23 358 344 326 59 47 40 18 13 18 339 310 294 297 282 305 304 262 229 208 179
160 165 168 168 174 176 176 178 179 176 166 171 179 166 158 141 137 122 111 95 78 73 81 70 66 48 46 67 54 59 64 43 40 53 51 59 65 61 44 49 51 47 50 60 38 33 33 31 32 36 32 36 27 25 32 37 33 32 27 43 38 34 71 70 38 19 14 350 36 16 9 12 43 47 10 339 305 280 267 276 288 291 256 200 224
164 168 169 165 173 175 178 179 180 178 167 176 185 169 169 175 156 117 87 87 76 71 49 73 76 61 68 62 67 68 60 75 63 50 45 59 48 49 53 61 58 62 12 29 21 35 41 25 31 22 14 25 39 34 27 23 34 28 26 19 31 25 36 44 29 14 33 13 350 10 9 7 1 29 18 4 329 257 258 244 250 245 257 230 221
162 170 169 173 171 175 177 183 179 177 168 177 183 175 175 185 160 143 101 79 61 66 77 95 90 82 68 76 73 76 67 66 77 79 69 56 58 43 37 60 82 93 313 297 3 35 12 357 348 324 325 353 25 354 22 32 12 36 26 25 30 37 28 25 15 17 8 13 1 11 16 12 351 359 31 11 330 339 285 263 249 260 270 257 224